Location: Unspecified
(52.4292°N, 19.3359°E)
Time: 15:26:02
(UTC+02:00)

Transit 2A Rocket - Pass Details

Date: 24 May 2024
Orbit: 583 x 910 km, 66.7° (Epoch: 22 June)

Event Time Altitude Azimuth Distance (km) Brightness Sun altitude
Rises 07:29:36 0° 282° (WNW) 3,162 7.6 23.9°
Reaches altitude 10° 07:32:30 10° 299° (WNW) 2,304 7.1 24.4°
Maximum altitude 07:36:27 21° 347° (NNW) 1,761 6.9 25.0°
Drops below altitude 10° 07:40:38 10° 35° (NE) 2,466 8.2 25.6°
Sets 07:43:52 0° 51° (NE) 3,455 9.1 26.1°
